DACH+ Corporate Intelligence Index
33.9M+ registered entities across 50+ jurisdictions.
Total Corpus Volume
33.9M
Indexed registered entities
Current View
50+
Entities matching filters
Page
8+
50 entities per page
50+ entities
| Entity & Legal Form | Registry No. | JUR. | Location | Status | Form | Last Sync |
|---|---|---|---|---|---|---|
2, RAM YARD | 5834E4E9-92B8-29C7-E063-4804A8C015BC | GB | BEDFORD | — | property_transaction | 2026-09-05 |
14, HONEYSUCKLE CLOSE | 5834E4E9-92B9-29C7-E063-4804A8C015BC | GB | BIGGLESWADE | — | property_transaction | 2026-09-05 |
26, WAGSTAFFE CLOSE | 5834E4E9-92BA-29C7-E063-4804A8C015BC | GB | BEDFORD | — | property_transaction | 2026-09-05 |
10, LANSDOWNE ROAD | 5834E4E9-92BC-29C7-E063-4804A8C015BC | GB | BEDFORD | — | property_transaction | 2026-09-05 |
219, HITCHIN ROAD | 5834E4E9-92BF-29C7-E063-4804A8C015BC | GB | LUTON | — | property_transaction | 2026-09-05 |
1, HERON QUAY | 5834E4E9-92C1-29C7-E063-4804A8C015BC | GB | BEDFORD | — | property_transaction | 2026-09-05 |
23, BRITAIN STREET | 5834E4E9-92C2-29C7-E063-4804A8C015BC | GB | DUNSTABLE | — | property_transaction | 2026-09-05 |
34, WELLINGTON STREET | 5834E4E9-92C4-29C7-E063-4804A8C015BC | GB | LUTON | — | property_transaction | 2026-09-05 |
3, WATERLOW CHAPEL, WATERLOW ROAD | 5834E4E9-92C5-29C7-E063-4804A8C015BC | GB | DUNSTABLE | — | property_transaction | 2026-09-05 |
JEWSON LTD, LONDON ROAD | 5834E4E9-92C7-29C7-E063-4804A8C015BC | GB | BEDFORD | — | property_transaction | 2026-09-05 |
15, SIGNAL CLOSE | 5834E4E9-92C8-29C7-E063-4804A8C015BC | GB | HENLOW | — | property_transaction | 2026-09-05 |
FLAT 38, AUCTION HOUSE COURTYARD, 25, JOHN STREET | 5834E4E9-92CB-29C7-E063-4804A8C015BC | GB | LUTON | — | property_transaction | 2026-09-05 |
60, HAREWELLE WAY, HARROLD | 5834E4E9-92CC-29C7-E063-4804A8C015BC | GB | BEDFORD | — | property_transaction | 2026-09-05 |
12, COLLEGE ROAD | 5834E4E9-92CD-29C7-E063-4804A8C015BC | GB | BEDFORD | — | property_transaction | 2026-09-05 |
121, ASHBURNHAM ROAD | 5834E4E9-92CF-29C7-E063-4804A8C015BC | GB | LUTON | — | property_transaction | 2026-09-05 |
180, RUNLEY ROAD | 5834E4E9-92D3-29C7-E063-4804A8C015BC | GB | LUTON | — | property_transaction | 2026-09-05 |
FLAT 4, 26, MARSH ROAD | 5834E4E9-92D4-29C7-E063-4804A8C015BC | GB | LUTON | — | property_transaction | 2026-09-05 |
7, RIVER VIEW | 5834E4E9-92D8-29C7-E063-4804A8C015BC | GB | SHEFFORD | — | property_transaction | 2026-09-05 |
47, HIGH STREET SOUTH | 5834E4E9-92DA-29C7-E063-4804A8C015BC | GB | DUNSTABLE | — | property_transaction | 2026-09-05 |
4, CORBET RIDE | 5834E4E9-92DB-29C7-E063-4804A8C015BC | GB | LEIGHTON BUZZARD | — | property_transaction | 2026-09-05 |
4, SCHOOL HOUSE GARDENS | 5834E4E9-A35B-29C7-E063-4804A8C015BC | GB | LOUGHTON | — | property_transaction | 2026-09-05 |
43 - 45, NEWLAND STREET | 5834E4E9-A35C-29C7-E063-4804A8C015BC | GB | WITHAM | — | property_transaction | 2026-09-05 |
80, COALPORT CLOSE | 5834E4E9-A35D-29C7-E063-4804A8C015BC | GB | HARLOW | — | property_transaction | 2026-09-05 |
61, PAARL ROAD | 5834E4E9-A35E-29C7-E063-4804A8C015BC | GB | CANVEY ISLAND | — | property_transaction | 2026-09-05 |
99, NEWLAND STREET | 5834E4E9-A35F-29C7-E063-4804A8C015BC | GB | WITHAM | — | property_transaction | 2026-09-05 |
5, HAROLD ROAD | 5834E4E9-A360-29C7-E063-4804A8C015BC | GB | BRAINTREE | — | property_transaction | 2026-09-05 |
12, THE AVENUE | 5834E4E9-A361-29C7-E063-4804A8C015BC | GB | COLCHESTER | — | property_transaction | 2026-09-05 |
PARKING SPACE, 17, EAST HILL | 5834E4E9-A363-29C7-E063-4804A8C015BC | GB | COLCHESTER | — | property_transaction | 2026-09-05 |
38, ASHANTI CLOSE, SHOEBURYNESS | 5834E4E9-A364-29C7-E063-4804A8C015BC | GB | SOUTHEND-ON-SEA | — | property_transaction | 2026-09-05 |
62, DENBY GRANGE, CHURCH LANGLEY | 5834E4E9-A365-29C7-E063-4804A8C015BC | GB | HARLOW | — | property_transaction | 2026-09-05 |
PROMENADE HOUSE, CRESCENT TERRACE | 5834E4E9-A609-29C7-E063-4804A8C015BC | GB | CHELTENHAM | — | property_transaction | 2026-09-05 |
3, RIBBLESDALE, THORNBURY | 5834E4E9-A60A-29C7-E063-4804A8C015BC | GB | BRISTOL | — | property_transaction | 2026-09-05 |
109, QUEENS ROAD | 5834E4E9-A60B-29C7-E063-4804A8C015BC | GB | TEWKESBURY | — | property_transaction | 2026-09-05 |
18, CHURCH STREET | 5834E4E9-A60C-29C7-E063-4804A8C015BC | GB | TEWKESBURY | — | property_transaction | 2026-09-05 |
10, BATH ROAD | 5834E4E9-A60D-29C7-E063-4804A8C015BC | GB | CHELTENHAM | — | property_transaction | 2026-09-05 |
49, ST GEORGES STREET | 5834E4E9-A60E-29C7-E063-4804A8C015BC | GB | CHELTENHAM | — | property_transaction | 2026-09-05 |
19, REGENT STREET | 5834E4E9-A60F-29C7-E063-4804A8C015BC | GB | CHELTENHAM | — | property_transaction | 2026-09-05 |
34, RANGERS WALK, HANHAM | 5834E4E9-A610-29C7-E063-4804A8C015BC | GB | BRISTOL | — | property_transaction | 2026-09-05 |
12, TEMPLEWAY | 5834E4E9-A611-29C7-E063-4804A8C015BC | GB | LYDNEY | — | property_transaction | 2026-09-05 |
172, DEWFALLS DRIVE, BRADLEY STOKE | 5834E4E9-A612-29C7-E063-4804A8C015BC | GB | BRISTOL | — | property_transaction | 2026-09-05 |
7, SIMMONDS VIEW, STOKE GIFFORD | 5834E4E9-A615-29C7-E063-4804A8C015BC | GB | BRISTOL | — | property_transaction | 2026-09-05 |
TIEN HOUSE, CERNEY WICK | 5834E4E9-A616-29C7-E063-4804A8C015BC | GB | CIRENCESTER | — | property_transaction | 2026-09-05 |
4, LONGNEY ROAD, TUFFLEY | 5834E4E9-A617-29C7-E063-4804A8C015BC | GB | GLOUCESTER | — | property_transaction | 2026-09-05 |
DRESDEN HOUSE, GLASSHOUSE HILL, MAY HILL | 5834E4E9-A618-29C7-E063-4804A8C015BC | GB | LONGHOPE | — | property_transaction | 2026-09-05 |
64, CRISPIN WAY | 5834E4E9-A619-29C7-E063-4804A8C015BC | GB | BRISTOL | — | property_transaction | 2026-09-05 |
ST. GEORGES APARTMENTS, 22, SWINDON ROAD | 5834E4E9-A61A-29C7-E063-4804A8C015BC | GB | CHELTENHAM | — | property_transaction | 2026-09-05 |
UNIT A2, DRAYCOTT INDUSTRIAL ESTATE, DRAYCOTT | 5834E4E9-A61B-29C7-E063-4804A8C015BC | GB | MORETON-IN-MARSH | — | property_transaction | 2026-09-05 |
27, FAIRLYN DRIVE | 5834E4E9-A61C-29C7-E063-4804A8C015BC | GB | BRISTOL | — | property_transaction | 2026-09-05 |
96, FINCH ROAD, CHIPPING SODBURY | 5834E4E9-A61D-29C7-E063-4804A8C015BC | GB | BRISTOL | — | property_transaction | 2026-09-05 |
121, WRIGHT WAY, STAPLETON | 5834E4E9-A61F-29C7-E063-4804A8C015BC | GB | BRISTOL | — | property_transaction | 2026-09-05 |